Home > Weather > Seelze > Past weeks

Flag for Germany Past Weather in Seelze, Lower Saxony, Germany — Yesterday and Last 2 Weeks

Now
64 °F

Sunny.


Feels Like: 64 °F
Forecast: 63 / 86 °F
Wind: 6 mph from East

Location: Hannover

Current Time: Aug 24, 2016 at 8:26:38 AM

Latest Report: Aug 24, 2016 at 7:50 AM


Visibility: 10 mi

Pressure: 30.27 "Hg

Humidity: 88%

Dew Point: 61 °F

Location of SeelzeLocation

Past Weather in Seelze — Graph

°F

Seelze Temperature Yesterday

Maximum temperature yesterday: 77 °F (at 3:20 PM)
Minimum temperature yesterday: 59 °F (at 1:20 AM)
Average temperature yesterday: 68 °F

High & Low Weather Summary for the Past Weeks

 TemperatureHumidityPressure
High79 °F (Aug 19, 5:50 PM)100% (Aug 12, 1:50 AM)30.33 "Hg (Aug 12, 1:50 AM)
Low45 °F (Aug 11, 6:20 AM)27% (Aug 18, 3:50 PM)29.80 "Hg (Aug 18, 3:20 PM)
Average62 °F76%30.08 "Hg
* Reported Aug 9 7:20 AM — Aug 24 7:20 AM, Seelze, Weather by CustomWeather, © 2016

Note: Actual official high and low records may vary slightly from our data, if they occured in-between our weather recording intervals... More about our weather records

Advertising

Seelze Weather History for the Previous 24 Hours

Scroll right to see more
 ConditionsComfort  
Time TempWeatherWind HumidityBarometerVisibility
7:20 AM
Wed, Aug 24
61 °FClear.5 mph94%30.27 "Hg5 mi
6:50 AM61 °FFog.6 mph94%30.27 "Hg4 mi
6:20 AM61 °FFog.5 mph94%30.24 "Hg4 mi
5:50 AM61 °FFog.6 mph94%30.27 "Hg4 mi
5:20 AM61 °FFog.5 mph94%30.27 "Hg4 mi
4:50 AM61 °FFog.5 mph94%30.27 "Hg4 mi
4:20 AM61 °FFog.5 mph100%30.27 "Hg3 mi
3:50 AM61 °FFog.5 mph94%30.27 "Hg3 mi
3:20 AM63 °FFog.5 mph94%30.27 "Hg4 mi
2:50 AM61 °FClear.5 mph100%30.27 "Hg5 mi
2:20 AM63 °FClear.5 mph94%30.27 "Hg10 mi
1:50 AM63 °FClear.5 mph94%30.30 "Hg10 mi
1:20 AM63 °FClear.5 mph94%30.30 "Hg10 mi
12:50 AM64 °FClear.5 mph88%30.30 "Hg10 mi
12:20 AM64 °FClear.5 mph88%30.30 "Hg10 mi
11:50 PM
Tue, Aug 23
64 °FClear.5 mph94%30.30 "Hg10 mi
11:20 PM66 °FClear.5 mph88%30.30 "Hg10 mi
10:50 PM66 °FClear.5 mph88%30.30 "Hg10 mi
10:20 PM66 °FClear.5 mph88%30.30 "Hg10 mi
9:50 PM66 °FClear.5 mph88%30.30 "Hg10 mi
9:20 PM66 °FScattered clouds.5 mph88%30.30 "HgN/A
8:50 PM68 °FScattered clouds.2 mph83%30.30 "HgN/A
8:20 PM72 °FScattered clouds.3 mph73%30.30 "HgN/A
7:50 PM73 °FScattered clouds.2 mph69%30.30 "HgN/A
7:20 PM75 °FScattered clouds.3 mph65%30.27 "HgN/A
6:50 PM75 °FScattered clouds.2 mph69%30.30 "HgN/A
6:20 PM75 °FPartly sunny.3 mph65%30.30 "HgN/A
5:50 PM75 °FPartly sunny.5 mph65%30.30 "HgN/A
5:20 PM75 °FPartly sunny.5 mph65%30.30 "HgN/A
4:50 PM75 °FPartly sunny.5 mph65%30.30 "HgN/A
4:20 PM75 °FPartly sunny.7 mph65%30.30 "HgN/A
3:50 PM77 °FBroken clouds.3 mph61%30.30 "HgN/A
3:20 PM77 °FPartly sunny.5 mph61%30.30 "HgN/A
2:50 PM75 °FPartly sunny.6 mph65%30.30 "HgN/A
2:20 PM73 °FPartly sunny.6 mph65%30.33 "HgN/A
1:50 PM73 °FPassing clouds.8 mph69%30.33 "HgN/A
1:20 PM73 °FPassing clouds.6 mph69%30.33 "HgN/A
12:50 PM72 °FPassing clouds.6 mph69%30.33 "HgN/A
12:20 PM70 °FSunny.6 mph73%30.33 "Hg10 mi
11:50 AM70 °FPassing clouds.5 mph73%30.33 "HgN/A
11:20 AM68 °FPassing clouds.9 mph78%30.33 "HgN/A
10:50 AM68 °FSunny.8 mph78%30.33 "Hg10 mi
10:20 AM68 °FPassing clouds.6 mph78%30.33 "HgN/A
9:50 AM66 °FSunny.7 mph83%30.33 "Hg10 mi
9:20 AM66 °FSunny.6 mph78%30.30 "Hg10 mi
8:50 AM66 °FPassing clouds.6 mph78%30.30 "HgN/A
8:20 AM64 °FPartly sunny.6 mph83%30.30 "HgN/A
Weather by CustomWeather, © 2016

See weather overviewHow to use our weather pages